Wind_Speed
83 84 84 85 86 88 89 91 92 93 94 97 100 102 101 102 104 106 107 109 110 112 113 117 115 116 117 114 115 115 116 118 121 117 107 113 114 116 119 123 121 116 113
88 89 91 92 94 96 98 98 99 99 100 101 104 105 109 110 112 113 115 117 118 116 117 120 119 118 116 114 113 114 112 113 110 110 104 108 114 116 119 115 111 110 115
94 95 98 99 99 100 100 102 103 105 108 110 112 114 115 118 119 120 120 121 122 121 121 119 117 117 114 111 110 111 107 103 100 96 97 104 107 112 113 112 107 110 116
102 103 104 105 106 107 108 110 112 114 117 118 120 121 123 124 125 125 125 125 124 124 124 120 117 112 110 110 104 101 101 97 95 103 104 105 112 114 110 105 108 115 121
107 108 109 109 111 114 116 117 120 122 124 125 127 129 130 129 129 129 127 126 125 123 115 113 109 103 103 99 97 98 98 100 101 99 100 103 110 114 111 109 114 114 117
112 114 116 117 119 122 124 125 128 128 131 133 134 135 134 133 128 126 124 122 117 111 107 103 98 91 94 94 92 96 99 98 98 102 102 108 114 111 111 115 115 113 114
118 120 121 123 125 126 129 131 133 133 135 136 135 134 131 126 125 122 119 107 105 98 95 94 89 92 96 98 96 96 99 100 100 105 105 109 111 116 117 115 112 113 112
123 124 125 128 130 131 133 134 134 131 131 131 124 120 122 116 113 107 105 98 90 92 94 96 94 94 96 100 103 103 104 103 103 102 104 107 111 113 113 111 111 108 110
126 127 127 128 128 128 127 125 125 123 119 116 117 109 107 103 104 102 93 93 93 92 93 95 96 99 100 102 102 105 106 106 104 104 106 109 114 111 110 109 108 109 108
128 127 123 122 122 119 118 110 107 104 102 99 102 99 101 98 96 96 92 94 95 92 93 99 97 98 95 93 96 98 100 102 104 103 105 109 107 105 106 107 106 107 112
120 115 111 112 115 113 109 108 100 97 96 96 95 93 91 93 92 90 90 93 95 95 96 94 95 93 90 92 93 94 97 100 100 100 101 101 99 99 102 106 108 108 109
114 112 111 107 100 95 94 95 95 95 95 93 90 88 87 86 84 83 85 87 88 89 88 85 85 85 85 86 88 92 95 93 94 95 98 99 102 103 104 105 109 110 112
98 95 94 91 89 90 90 90 84 80 79 79 80 80 79 79 79 78 77 78 79 80 79 80 81 82 83 87 89 90 91 93 95 96 97 101 105 106 108 109 112 112 113
87 84 84 83 81 79 77 76 75 74 72 72 71 72 74 74 73 72 72 73 75 76 78 80 83 85 88 90 93 95 96 97 98 99 101 104 106 108 109 111 114 116 119
75 71 71 70 70 69 70 70 69 69 70 72 72 73 75 76 76 75 74 76 77 78 79 81 85 89 92 94 97 100 101 101 102 103 105 108 111 113 115 118 120 122 123
62 62 54 55 58 57 60 56 62 66 68 71 73 74 74 76 77 77 79 81 84 85 86 89 93 95 97 99 100 99 104 108 108 109 111 115 118 119 120 122 121 121 122
52 45 46 54 46 56 53 55 53 58 62 66 72 75 80 82 82 84 84 84 86 85 87 92 96 97 100 104 107 109 109 112 112 109 110 114 115 117 116 120 123 126 129
55 63 61 59 61 62 63 57 63 67 65 60 64 58 67 75 79 84 85 84 84 90 90 92 92 99 103 105 109 113 114 112 110 111 113 112 112 114 113 117 116 122 125
68 69 70 72 71 75 72 68 72 77 78 77 77 73 76 74 77 84 82 84 82 83 91 94 92 100 104 111 110 112 114 114 112 115 117 119 119 120 124 117 113 115 119
65 66 72 78 86 82 80 82 81 82 82 83 86 88 86 89 90 88 87 86 92 94 96 101 102 109 109 109 111 115 114 121 123 122 121 123 121 122 123 122 118 117 118
72 80 80 85 85 88 86 88 90 91 92 97 99 98 96 96 99 100 100 99 100 104 108 107 113 117 116 115 117 119 118 122 126 127 123 124 124 126 126 123 121 121 119
89 91 90 90 92 97 94 97 99 99 104 103 104 102 102 103 102 103 103 107 109 111 118 121 125 119 115 115 116 118 121 124 125 126 126 127 128 126 126 123 120 117 115
98 98 99 97 100 103 104 103 106 107 109 111 112 110 109 107 106 109 109 115 118 121 127 126 123 120 116 117 122 124 126 126 124 121 121 119 119 118 114 111 109 107 106
104 109 105 107 110 111 111 112 115 114 113 110 112 109 111 112 116 117 117 119 124 128 131 127 124 120 117 116 118 119 116 113 113 112 111 111 111 111 109 107 106 103 101
117 122 112 117 122 121 117 118 119 116 115 115 112 115 117 117 117 120 122 125 129 126 125 120 119 115 115 119 114 114 114 115 114 113 112 110 107 105 104 102 99 96 94
130 126 121 125 130 124 124 120 118 119 116 118 119 119 120 122 124 125 125 126 123 116 113 115 115 114 114 112 113 111 111 111 110 108 106 104 103 101 99 97 94 92 91
Wind_Direction
276 277 279 281 282 284 285 286 287 289 291 292 292 293 294 293 293 293 293 294 295 296 297 297 297 298 299 298 296 295 295 295 296 298 299 301 299 297 302 303 309 311 311
275 277 279 281 282 283 284 286 287 289 290 291 291 291 291 291 292 292 292 293 293 294 295 295 296 297 296 295 294 295 295 296 298 297 300 297 300 298 303 306 309 309 308
278 278 279 281 283 285 286 287 288 288 289 290 291 291 291 291 291 292 293 293 293 294 294 295 294 294 296 295 294 295 297 298 296 298 296 298 299 301 303 306 306 304 307
279 281 282 283 284 285 286 287 288 288 289 289 290 290 291 291 292 292 293 292 293 293 293 292 293 294 292 294 296 296 298 296 294 293 298 298 298 300 303 303 306 303 305
280 282 283 284 286 287 288 288 289 289 290 290 291 292 292 292 291 291 291 290 291 293 293 294 293 292 293 294 294 293 293 294 296 295 295 295 295 298 301 301 302 304 304
282 284 284 285 287 288 289 290 290 291 291 291 292 292 292 291 290 289 289 291 293 292 292 290 291 288 283 285 286 286 288 288 288 289 292 293 294 295 298 300 301 301 304
282 284 285 287 288 289 290 289 290 292 292 291 290 288 289 289 290 289 289 288 286 285 285 285 284 285 286 287 287 288 289 287 287 290 291 292 293 295 300 303 303 304 306
283 283 283 285 287 288 289 289 291 290 288 287 289 288 287 288 288 287 286 285 282 280 282 282 283 283 285 285 286 289 288 289 290 291 293 294 295 299 300 302 303 304 304
281 282 284 286 288 288 287 285 285 285 286 286 285 284 284 284 284 283 283 282 282 282 284 284 283 283 282 284 285 287 291 292 294 296 296 294 296 299 299 300 300 303 304
283 286 289 289 287 285 285 286 286 284 283 284 283 284 284 285 285 284 284 284 284 284 286 290 289 285 287 290 290 292 293 292 293 295 295 294 299 296 297 299 301 300 304
287 287 286 287 287 286 285 285 282 282 282 282 284 285 284 285 286 287 286 285 285 285 286 288 290 290 291 289 289 290 290 291 292 292 291 294 297 295 296 298 300 301 301
286 286 286 284 284 285 284 285 285 286 286 287 288 287 287 286 286 286 286 286 285 285 286 287 288 288 288 289 289 288 289 289 290 290 293 294 294 296 296 296 297 299 300
286 286 286 286 286 286 288 288 287 287 287 286 286 286 285 285 284 286 288 289 289 289 290 290 292 291 289 289 289 289 289 288 289 290 290 290 292 293 294 296 298 299 301
287 288 289 290 289 290 288 288 287 285 284 284 284 283 284 285 286 286 287 287 286 287 288 289 289 288 286 284 284 285 285 286 288 288 290 290 292 294 295 297 298 299 300
290 290 291 289 288 286 286 288 287 285 284 282 282 283 283 285 286 287 287 287 288 289 289 289 289 288 289 288 288 289 289 289 290 292 293 293 293 294 295 296 297 298 298
291 293 288 295 295 297 292 296 295 289 290 291 292 290 288 288 288 288 287 287 287 287 286 285 285 285 285 286 286 286 288 289 290 291 291 291 292 292 293 294 295 295 296
292 295 297 287 295 310 290 288 297 301 290 288 286 285 285 286 287 285 288 287 287 287 287 287 284 282 282 283 284 285 287 289 291 290 289 289 290 290 290 292 293 293 293
281 284 292 300 294 300 303 293 306 293 301 281 300 290 287 284 284 284 285 283 284 281 281 283 287 285 284 285 285 284 286 288 288 286 286 287 288 290 290 292 292 292 290
277 289 290 296 305 301 305 302 302 306 306 301 304 297 303 304 296 295 287 287 292 295 293 293 294 289 286 285 287 287 287 290 288 288 288 289 287 289 291 290 291 291 290
290 293 302 295 292 298 297 303 299 300 300 302 302 305 304 304 304 301 303 301 295 300 302 304 301 301 298 294 293 292 290 289 289 288 288 288 289 292 292 291 291 291 291
297 303 300 300 299 299 298 296 298 296 299 302 303 300 301 302 303 301 301 301 302 303 304 303 303 303 300 295 293 293 291 289 290 288 289 290 289 290 291 291 290 290 289
298 299 301 301 292 295 296 293 297 295 299 298 299 300 300 298 299 300 303 304 300 300 302 300 300 299 296 294 294 291 289 289 289 288 288 288 289 291 291 290 290 291 290
302 296 297 295 298 297 295 295 296 298 298 295 296 298 300 298 298 302 303 302 304 303 301 300 298 294 292 292 291 290 290 289 289 289 290 290 288 288 289 289 290 290 289
297 299 296 299 299 300 297 296 297 296 297 298 298 297 297 296 299 302 301 302 302 301 298 298 296 292 290 291 291 291 290 290 288 288 289 291 290 289 289 289 288 288 288
300 301 297 299 302 300 298 296 295 295 296 297 297 297 297 298 298 299 300 300 299 299 298 294 291 289 290 290 289 289 290 290 290 289 290 290 289 289 288 287 288 289 288
299 300 298 300 301 301 298 295 297 297 295 296 296 298 298 299 301 299 299 299 297 294 293 293 291 290 290 289 290 289 289 289 289 289 288 287 288 288 288 288 289 289 288
Height
10736 10736 10736 10734 10733 10730 10727 10725 10722 10721 10713 10708 10701 10695 10695 10689 10680 10674 10667 10659 10651 10644 10635 10623 10618 10609 10600 10591 10580 10571 10562 10555 10544 10534 10522 10510 10493 10480 10477 10470 10466 10453 10439
10718 10719 10718 10716 10714 10712 10709 10706 10704 10703 10696 10689 10682 10675 10670 10667 10660 10652 10644 10637 10628 10623 10614 10602 10591 10581 10574 10566 10559 10549 10542 10533 10524 10513 10502 10487 10472 10463 10458 10454 10447 10434 10418
10699 10699 10697 10696 10696 10693 10690 10685 10682 10678 10674 10669 10661 10654 10647 10639 10633 10627 10619 10610 10601 10594 10585 10579 10569 10558 10548 10542 10534 10526 10520 10512 10502 10492 10478 10466 10451 10443 10437 10435 10427 10412 10398
10679 10678 10676 10674 10673 10672 10668 10662 10658 10653 10648 10643 10637 10630 10621 10614 10607 10599 10591 10581 10574 10566 10558 10549 10544 10537 10525 10517 10509 10502 10496 10489 10480 10469 10460 10447 10431 10420 10417 10415 10405 10391 10377
10657 10656 10655 10652 10649 10645 10641 10637 10632 10627 10621 10616 10609 10601 10593 10586 10578 10570 10561 10552 10544 10538 10531 10522 10516 10512 10500 10495 10489 10480 10472 10465 10457 10448 10438 10428 10412 10401 10400 10396 10384 10371 10357
10634 10631 10628 10627 10624 10618 10613 10607 10602 10596 10588 10582 10575 10567 10560 10552 10546 10536 10530 10525 10518 10510 10504 10499 10493 10486 10475 10472 10465 10461 10454 10446 10440 10431 10420 10408 10392 10379 10379 10373 10360 10346 10336
10610 10608 10604 10601 10597 10592 10585 10578 10572 10564 10557 10547 10540 10530 10525 10519 10514 10507 10500 10493 10487 10484 10478 10473 10470 10463 10452 10446 10442 10434 10427 10419 10414 10408 10400 10387 10371 10363 10362 10352 10338 10326 10315
10586 10584 10580 10575 10569 10562 10555 10549 10541 10533 10524 10515 10511 10501 10495 10488 10484 10478 10474 10471 10466 10461 10457 10453 10448 10444 10436 10429 10422 10414 10406 10399 10393 10386 10376 10364 10348 10346 10339 10330 10319 10307 10296
10562 10558 10556 10552 10544 10537 10529 10521 10514 10506 10498 10492 10484 10476 10468 10461 10458 10454 10448 10447 10441 10438 10433 10425 10421 10415 10411 10405 10399 10391 10384 10376 10369 10362 10352 10339 10329 10326 10318 10308 10299 10289 10279
10537 10532 10525 10518 10512 10507 10499 10490 10482 10476 10467 10459 10455 10448 10445 10439 10434 10431 10425 10422 10420 10416 10412 10400 10395 10391 10388 10382 10375 10368 10362 10355 10349 10340 10330 10317 10313 10306 10298 10286 10278 10268 10261
10507 10502 10496 10488 10481 10471 10465 10459 10452 10446 10440 10434 10429 10425 10419 10417 10413 10409 10403 10400 10397 10393 10389 10384 10373 10369 10364 10359 10354 10347 10340 10333 10326 10318 10308 10300 10294 10284 10275 10267 10256 10248 10238
10481 10473 10466 10461 10454 10446 10438 10431 10424 10421 10416 10410 10404 10399 10396 10393 10390 10385 10381 10377 10373 10369 10364 10360 10355 10349 10342 10336 10330 10321 10316 10309 10301 10294 10287 10279 10268 10262 10254 10245 10235 10227 10216
10449 10444 10439 10433 10426 10419 10413 10408 10401 10397 10392 10387 10383 10378 10373 10369 10365 10362 10359 10354 10349 10344 10339 10335 10331 10325 10318 10311 10303 10297 10291 10285 10278 10272 10265 10255 10246 10240 10231 10222 10212 10203 10195
10422 10418 10414 10408 10401 10396 10390 10386 10383 10378 10373 10369 10364 10357 10352 10348 10345 10343 10339 10334 10328 10323 10319 10315 10309 10302 10295 10288 10280 10274 10268 10262 10256 10249 10242 10233 10224 10217 10208 10199 10189 10178 10169
10399 10395 10391 10387 10381 10377 10373 10369 10365 10360 10355 10350 10345 10340 10335 10330 10328 10325 10321 10314 10309 10305 10301 10294 10287 10280 10273 10265 10258 10251 10244 10238 10231 10224 10217 10209 10199 10191 10181 10173 10164 10154 10145
10381 10377 10373 10370 10365 10361 10356 10353 10347 10342 10337 10332 10327 10321 10316 10311 10306 10303 10300 10295 10289 10284 10280 10271 10264 10256 10248 10241 10234 10226 10218 10212 10205 10198 10190 10182 10173 10165 10156 10146 10139 10128 10120
10366 10363 10360 10356 10352 10348 10341 10336 10330 10326 10320 10316 10308 10303 10298 10292 10287 10281 10277 10273 10267 10263 10258 10251 10242 10232 10224 10216 10208 10202 10195 10186 10180 10170 10162 10153 10144 10137 10128 10119 10110 10101 10092
10349 10344 10343 10339 10334 10329 10323 10317 10313 10306 10301 10296 10291 10284 10278 10271 10264 10258 10253 10246 10238 10233 10228 10221 10213 10205 10197 10189 10181 10172 10167 10159 10152 10142 10134 10125 10115 10108 10103 10093 10084 10072 10061
10329 10327 10322 10316 10312 10306 10301 10296 10289 10283 10277 10271 10265 10261 10255 10246 10239 10233 10226 10220 10213 10203 10196 10191 10185 10179 10169 10159 10150 10141 10132 10125 10117 10112 10103 10097 10086 10078 10074 10063 10055 10043 10031
10309 10303 10299 10294 10289 10283 10277 10270 10264 10259 10252 10248 10240 10233 10226 10220 10212 10206 10198 10189 10183 10175 10166 10158 10150 10143 10133 10122 10113 10104 10095 10091 10082 10073 10064 10056 10048 10042 10034 10027 10018 10008 10001
10283 10280 10274 10270 10263 10258 10252 10246 10240 10234 10227 10221 10214 10207 10201 10193 10183 10176 10167 10159 10151 10143 10133 10124 10117 10108 10098 10088 10075 10065 10057 10050 10043 10036 10024 10018 10009 10003 9996 9990 9985 9978 9972
10257 10252 10246 10242 10237 10231 10225 10219 10213 10206 10200 10192 10186 10177 10171 10163 10155 10146 10136 10127 10118 10109 10099 10090 10081 10070 10060 10051 10039 10028 10019 10009 10000 9992 9986 9980 9972 9965 9958 9953 9949 9943 9938
10228 10223 10217 10212 10208 10202 10195 10187 10181 10175 10168 10161 10153 10144 10135 10127 10119 10110 10100 10093 10083 10071 10061 10050 10039 10030 10019 10010 10000 9989 9980 9971 9961 9953 9947 9941 9937 9932 9924 9919 9912 9907 9901
10198 10194 10187 10180 10174 10167 10159 10153 10147 10140 10132 10123 10115 10107 10100 10091 10081 10071 10062 10053 10043 10031 10020 10006 9995 9985 9976 9967 9958 9947 9939 9932 9926 9918 9910 9904 9900 9895 9890 9885 9881 9874 9870
10164 10159 10150 10145 10139 10133 10125 10118 10110 10102 10094 10086 10077 10069 10061 10051 10041 10032 10022 10012 10002 9990 9977 9964 9955 9944 9934 9926 9918 9910 9901 9895 9890 9883 9875 9870 9865 9859 9854 9851 9846 9841 9837
10128 10122 10114 10108 10102 10093 10087 10079 10070 10062 10054 10047 10037 10027 10019 10009 9999 9989 9979 9967 9957 9946 9936 9928 9918 9909 9900 9890 9882 9874 9867 9859 9853 9847 9839 9834 9831 9826 9821 9818 9814 9811 9806